Location: Long Geng
(2.6167°N, 114.1333°E)
Time: 15:04:47
(UTC+00:00)

Okean-O - Pass Details

Date: 14 May 2021
Orbit: 638 x 641 km, 98.2° (Epoch: 16 June)

Event Time Altitude Azimuth Distance (km) Brightness Sun altitude
Exits shadow 12:22:26 22° 217° (SW) 1,415 4.5 -27.9°
Maximum altitude 12:24:20 30° 258° (WSW) 1,151 4.3 -28.3°
Drops below altitude 10° 12:28:11 10° 319° (NW) 2,024 5.9 -29.2°
Sets 12:30:36 0° 330° (NNW) 2,931 6.8 -29.7°
